Regional Weather Roundup
Issued by NWS

Home | Current Version | Previous Version | Graphics & Text | Print | Product List | Glossary On
Versions: 1 2 3 4 5 6 7 8 9 10 11 12 13 14 15 16 17 18 19 20 21 22 23 24 25 26 27 28 29 30 31 32 33 34 35 36 37 38 39 40 41 42 43 44 45 46 47 48 49 50
662
ASUS43 KTOP 242208
RWRKS

WEATHER ROUNDUP FOR KANSAS
NATIONAL WEATHER SERVICE GOODLAND KS
500 PM CDT SUN JUL 24 2016

NOTE:  "FAIR" INDICATES FEW OR NO CLOUDS BELOW 12,000 FEET WITH NO
SIGNIFICANT WEATHER AND/OR OBSTRUCTIONS TO VISIBILITY.

KSZ001>006-013>018-027>032-041>047-242300-
NORTHWEST KANSAS

CITY           SKY/WX    TMP DP  RH WIND       PRES   REMARKS
GOODLAND       LGT RAIN  91  58  32 E12       30.06F
HAYS           SUNNY     91  66  43 NE22G28   29.99S
HILL CITY      SUNNY     90  63  40 E17       30.02F
RUSSELL        MOSUNNY   90  67  46 NE16G24   29.97S
$$

KSZ061>065-074>080-084>089-242300-
SOUTHWEST KANSAS

CITY           SKY/WX    TMP DP  RH WIND       PRES   REMARKS
DODGE CITY     CLOUDY    94  63  35 CALM      29.97F HX  95
ELKHART          N/A     91  60  35 N1          N/A
GARDEN CITY    MOSUNNY   93  66  40 S7        29.98F HX  96
GREAT BEND     CLOUDY    97  68  38 NE10G17   29.93F HX 101
LIBERAL        MOSUNNY   95  63  34 E5        29.99F HX  96
PRATT          SUNNY     96  62  31 W5        29.93F HX  97
$$

KSZ066>073-081>083-090>101-242300-
SOUTHEAST KANSAS

CITY           SKY/WX    TMP DP  RH WIND       PRES   REMARKS
CHANUTE        SUNNY     97  73  45 SW7       29.92F HX 107
COFFEYVILLE    SUNNY     99  70  38 CALM      29.90F HX 106
HUTCHINSON     CLOUDY    95  70  44 E8        29.92F HX 101
MEDICINE LODGE   N/A    101  63  28 VRB5      29.89F HX 103
NEWTON         CLOUDY    96  72  45 E8        29.94F HX 104
PARSONS        SUNNY     99  70  38 CALM      29.92F HX 106
WICHITA INTL   CLOUDY    97  69  40 SE8       29.90F HX 103
WICHITA JABRA  CLOUDY    93  77  59 E6        29.91F HX 107
WICHITA MCCONL CLOUDY    97  69  41 SE9       29.91F HX 102
WINFIELD       MOSUNNY  100  68  35 SE12      29.91F HX 105
$$

KSZ007>012-019>026-033>040-048>060-102>105-242300-
NORTHEAST KANSAS

CITY           SKY/WX    TMP DP  RH WIND       PRES   REMARKS
CONCORDIA      CLOUDY    81  66  60 NE15      30.02S
EMPORIA        MOSUNNY   99  71  40 N7        29.93S HX 107
LAWRENCE       CLOUDY    91  77  63 N14       29.94R HX 104
MANHATTAN      CLOUDY    87  74  64 NE14      29.97R HX  95
MARYSVILLE     CLOUDY    77  66  69 E7        30.00F
OLATHE IND     CLOUDY    91  76  61 N12       29.94S HX 103
OLATHE EXE     CLOUDY    94  72  48 N5        29.94S HX 102
SALINA         CLOUDY    94  67  41 NE16G22   29.95S HX  97
TOPEKA BILLARD CLOUDY    91  76  61 N7        29.95S HX 103
TOPEKA FORBES  MOSUNNY   96  73  47 NE6       29.95S HX 105
$$




USA.gov is the U.S. government's official web portal to all federal, state and local government web resources and services.